World > North America > United States > New York
Hourly Weather in Mellenville, New YorkMellenville, New York Hourly Weather

Mellenville, NY Hourly Weather

Hourly Weather Mellenville, New YorkHourly Weather in Mellenville, NY
Lat: 42.25N, Lon: 73.67W  ICAO: KPSF
Web Search
Mellenville Weather Warning NWS WEATHER ALERT FOR THE MELLENVILLE, NY AREA - Issued: 915 AM EST Mon Dec 6 2021 Mellenville Weather Warning  

Helpful Tip: Abbreviated, 7 Day, 14 Day Forecasts. There is a weather forecast for every taste.

Feedback

Mellenville Hourly Weather

36 Hour Weather Scroll   °F Click to change Mellenville hourly weather to Imperial units.Click to change Mellenville hourly weather to Metric units. °C
Currently, Fog And Mist, temperature is 41°F5°C, dew point 40°F4°C, humidity 96%. Wind direction is N at 0 mph0 km/h with visibility of 2.00 mi3 km. Barometric pressure is 29.85 in1011 mb.

Dec 06
9:00 AM

Dec 06
10:00 AM

Dec 06
11:00 AM

Dec 06
NOON

Dec 06
1:00 PM

Dec 06
2:00 PM

Dec 06
3:00 PM

Dec 06
4:00 PM

Dec 06
5:00 PM

Dec 06
6:00 PM

Dec 06
7:00 PM

Dec 06
8:00 PM

Dec 06
9:00 PM

Dec 06
10:00 PM

Dec 06
11:00 PM

Dec 07
MIDNIGHT

Dec 07
1:00 AM

Dec 07
2:00 AM

Dec 07
3:00 AM

Dec 07
4:00 AM

Dec 07
5:00 AM

Dec 07
6:00 AM

Dec 07
7:00 AM

Dec 07
8:00 AM

Dec 07
9:00 AM

Dec 07
10:00 AM

Dec 07
11:00 AM

Dec 07
NOON

Dec 07
1:00 PM

Dec 07
2:00 PM

Dec 07
3:00 PM

Dec 07
4:00 PM

Dec 07
5:00 PM

Dec 07
6:00 PM

Dec 07
7:00 PM

Dec 07
8:00 PM
Cloudy Cloudy Cloudy Cloudy Cloudy Cloudy Cloudy Cloudy Cloudy Cloudy Cloudy Cloudy Cloudy Cloudy Cloudy Partly Cloudy Partly Cloudy Partly Cloudy Mostly Cloudy Mostly Cloudy Mostly Cloudy Partly Cloudy Partly Cloudy Partly Cloudy Cloudy Cloudy Cloudy Cloudy Cloudy Cloudy Mostly Cloudy Mostly Cloudy Mostly Cloudy Mostly Cloudy Mostly Cloudy Mostly Cloudy
Cloudy Cloudy Cloudy Cloudy Cloudy Cloudy Cloudy Cloudy Cloudy Cloudy Cloudy Cloudy Cloudy Cloudy Cloudy Partly Cloudy Partly Cloudy Partly Cloudy Mostly Cloudy Mostly Cloudy Mostly Cloudy Partly Cloudy Partly Cloudy Partly Cloudy Cloudy Cloudy Cloudy Cloudy Cloudy Cloudy Mostly Cloudy Mostly Cloudy Mostly Cloudy Mostly Cloudy Mostly Cloudy Mostly Cloudy
43°F6°C 44°F7°C 43°F6°C 43°F6°C 42°F6°C 41°F5°C 40°F4°C 39°F4°C 38°F3°C 38°F3°C 37°F3°C 37°F3°C 36°F2°C 36°F2°C 35°F2°C 35°F2°C 34°F1°C 33°F1°C 33°F1°C 32°F0°C 31°F-1°C 30°F-1°C 29°F-2°C 29°F-2°C 29°F-2°C 29°F-2°C 30°F-1°C 30°F-1°C 31°F-1°C 31°F-1°C 30°F-1°C 30°F-1°C 28°F-2°C 25°F-4°C 23°F-5°C 22°F-6°C
Rain Rain Rain Rain Rain Rain Rain Rain Rain Rain Rain Rain Snow Snow Snow Snow Snow - - - - - - - - - - - - - - - - - - -
51% 51% 51% 51% 51% 70% 70% 70% 70% 70% 70% 89% 89% 89% 89% 89% 89% 1% 1% 1% 1% 1% 1% 5% 5% 5% 5% 5% 5% 5% 5% 5% 5% 5% 5% 3%
40°F4°C 41°F5°C 40°F4°C 39°F4°C 38°F3°C 37°F3°C 35°F2°C 34°F1°C 33°F1°C 31°F-1°C 30°F-1°C 29°F-2°C 28°F-2°C 27°F-3°C 26°F-3°C 26°F-3°C 25°F-4°C 24°F-4°C 23°F-5°C 22°F-6°C 21°F-6°C 20°F-7°C 19°F-7°C 18°F-8°C 18°F-8°C 17°F-8°C 17°F-8°C 16°F-9°C 16°F-9°C 16°F-9°C 15°F-9°C 15°F-9°C 15°F-9°C 14°F-10°C 14°F-10°C 13°F-11°C
89% 89% 89% 86% 86% 86% 82% 82% 82% 76% 76% 73% 72% 69% 69% 69% 69% 69% 66% 66% 66% 66% 66% 63% 63% 60% 58% 55% 53% 53% 53% 53% 58% 62% 68% 68%
SSE SSE S S S S S S SW SW SSW SSW W W W W W W W W W W W W W W W WNW WNW WNW W W W W W W
5 mph 5 mph 5 mph 10 mph 10 mph 10 mph 17 mph 17 mph 17 mph 24 mph 24 mph 24 mph 22 mph 22 mph 22 mph 18 mph 18 mph 18 mph 17 mph 17 mph 17 mph 12 mph 12 mph 12 mph 13 mph 13 mph 13 mph 10 mph 10 mph 10 mph 9 mph 9 mph 9 mph 4 mph 4 mph 4 mph
3 mi5 km 5 mi8 km 6 mi10 km 6 mi10 km 10 mi16 km 10 mi16 km 10 mi16 km 10 mi16 km 6 mi10 km 6 mi10 km 5 mi8 km 6 mi10 km 6 mi10 km 10 mi16 km 10 mi16 km 10 mi16 km 10 mi16 km 10 mi16 km 10 mi16 km 10 mi16 km 10 mi16 km 10 mi16 km 10 mi16 km 10 mi16 km 10 mi16 km 10 mi16 km 10 mi16 km 10 mi16 km 10 mi16 km 10 mi16 km 10 mi16 km 10 mi16 km 10 mi16 km 10 mi16 km 10 mi16 km 10 mi16 km
Hour (EST)
Weather
Clouds
Temperature
Precip. Type
POP
Dewpoint
Humidity
Wind Direction
Wind Speed
Visibility
POP = Probability of Precipitation. ** Indicates missing data/values from model statistics.

24 Hour Forecast

Today - Cloudy. A chance of showers this morning, then showers likely this afternoon. Not as cool with highs in the upper 50s. South winds 5 to 10 mph with gusts up to 20 mph, increasing to around 15 mph with gusts up to 30 mph this afternoon. Chance of rain 60%.
Tonight - Mostly cloudy with rain showers in the evening, then mostly clear after midnight. Cold with lows in the upper 20s. West winds 10 to 15 mph. Gusts up to 35 mph in the evening. Chance of rain 80%.

48 Hour Forecast API Feed


Mon, Dec 6
9:00 am

Mon, Dec 6
10:00 am

Mon, Dec 6
11:00 am

Mon, Dec 6
Noon

Mon, Dec 6
1:00 pm

Mon, Dec 6
2:00 pm

Mon, Dec 6
3:00 pm

Mon, Dec 6
4:00 pm

Mon, Dec 6
5:00 pm

Mon, Dec 6
6:00 pm

Mon, Dec 6
7:00 pm

Mon, Dec 6
8:00 pm

Mon, Dec 6
9:00 pm

Mon, Dec 6
10:00 pm

Mon, Dec 6
11:00 pm

Tue, Dec 7
Midnight

Tue, Dec 7
1:00 am

Tue, Dec 7
2:00 am

Tue, Dec 7
3:00 am

Tue, Dec 7
4:00 am

Tue, Dec 7
5:00 am

Tue, Dec 7
6:00 am

Tue, Dec 7
7:00 am

Tue, Dec 7
8:00 am

Tue, Dec 7
9:00 am

Tue, Dec 7
10:00 am

Tue, Dec 7
11:00 am

Tue, Dec 7
Noon

Tue, Dec 7
1:00 pm

Tue, Dec 7
2:00 pm

Tue, Dec 7
3:00 pm

Tue, Dec 7
4:00 pm

Tue, Dec 7
5:00 pm

Tue, Dec 7
6:00 pm

Tue, Dec 7
7:00 pm

Tue, Dec 7
8:00 pm

Tue, Dec 7
9:00 pm

Tue, Dec 7
10:00 pm

Tue, Dec 7
11:00 pm

Wed, Dec 8
Midnight

Wed, Dec 8
1:00 am

Wed, Dec 8
2:00 am

Wed, Dec 8
3:00 am

Wed, Dec 8
4:00 am

Wed, Dec 8
5:00 am

Wed, Dec 8
6:00 am

Wed, Dec 8
7:00 am

Wed, Dec 8
8:00 am
FogFogPatchy Rain PossibleOvercastOvercastOvercastLight DrizzleOvercastLight RainOvercastLight DrizzleOvercastLight RainPatchy Light RainPatchy Sleet PossiblePatchy Snow PossiblePatchy Heavy SnowPatchy Heavy SnowClearClearClearClearClearPartly CloudySunnySunnySunnySunnyPartly CloudySunnyPartly CloudyPartly CloudyPartly CloudyPartly CloudyPartly CloudyPartly CloudyCloudyCloudyCloudyOvercastOvercastOvercastCloudyOvercastOvercastOvercastOvercastOvercast
Fog Fog Patchy rain possible Overcast Overcast Overcast Light drizzle Overcast Light rain Overcast Light drizzle Overcast Light rain Patchy light rain Patchy sleet possible Patchy snow possible Patchy heavy snow Patchy heavy snow Clear Clear Clear Clear Clear Partly cloudy Sunny Sunny Sunny Sunny Partly cloudy Sunny Partly cloudy Partly cloudy Partly cloudy Partly cloudy Partly cloudy Partly cloudy Cloudy Cloudy Cloudy Overcast Overcast Overcast Cloudy Overcast Overcast Overcast Overcast Overcast
44°F
7°C
45°F
7°C
47°F
8°C
49°F
10°C
51°F
10°C
51°F
11°C
53°F
12°C
55°F
13°C
56°F
14°C
57°F
14°C
58°F
14°C
55°F
13°C
45°F
7°C
42°F
6°C
40°F
5°C
36°F
2°C
34°F
1°C
33°F
1°C
33°F
1°C
31°F
-0°C
30°F
-1°C
29°F
-2°C
29°F
-2°C
28°F
-2°C
30°F
-1°C
32°F
0°C
38°F
3°C
37°F
3°C
37°F
3°C
38°F
3°C
37°F
3°C
37°F
3°C
33°F
1°C
31°F
-1°C
30°F
-1°C
29°F
-2°C
30°F
-1°C
31°F
-1°C
31°F
-0°C
31°F
-1°C
31°F
-1°C
31°F
-1°C
31°F
-1°C
31°F
-1°C
31°F
-1°C
31°F
-1°C
31°F
-1°C
31°F
-1°C
44°F
6°C
44°F
7°C
46°F
8°C
48°F
9°C
49°F
9°C
49°F
10°C
51°F
10°C
52°F
11°C
53°F
11°C
53°F
12°C
54°F
12°C
52°F
11°C
41°F
5°C
38°F
4°C
32°F
0°C
28°F
-2°C
26°F
-3°C
26°F
-4°C
24°F
-5°C
22°F
-6°C
22°F
-6°C
22°F
-6°C
22°F
-6°C
22°F
-6°C
22°F
-5°C
21°F
-6°C
22°F
-5°C
18°F
-8°C
17°F
-9°C
17°F
-9°C
15°F
-9°C
16°F
-9°C
17°F
-8°C
17°F
-8°C
17°F
-9°C
16°F
-9°C
17°F
-9°C
17°F
-8°C
18°F
-8°C
18°F
-8°C
18°F
-8°C
18°F
-8°C
18°F
-8°C
19°F
-8°C
19°F
-7°C
19°F
-7°C
19°F
-7°C
20°F
-7°C
29.88 in
1012 mb
29.85 in
1011 mb
29.83 in
1010 mb
29.77 in
1008 mb
29.74 in
1007 mb
29.68 in
1005 mb
29.62 in
1003 mb
29.62 in
1003 mb
29.56 in
1001 mb
29.53 in
1000 mb
29.5 in
999 mb
29.56 in
1001 mb
29.71 in
1006 mb
29.74 in
1007 mb
29.8 in
1009 mb
29.83 in
1010 mb
29.85 in
1011 mb
29.88 in
1012 mb
29.94 in
1014 mb
29.97 in
1015 mb
30 in
1016 mb
30.03 in
1017 mb
30.06 in
1018 mb
30.09 in
1019 mb
30.12 in
1020 mb
30.15 in
1021 mb
30.15 in
1021 mb
30.15 in
1021 mb
30.15 in
1021 mb
30.15 in
1021 mb
30.15 in
1021 mb
30.15 in
1021 mb
30.18 in
1022 mb
30.21 in
1023 mb
30.21 in
1023 mb
30.24 in
1024 mb
30.24 in
1024 mb
30.24 in
1024 mb
30.24 in
1024 mb
30.24 in
1024 mb
30.21 in
1023 mb
30.21 in
1023 mb
30.21 in
1023 mb
30.18 in
1022 mb
30.18 in
1022 mb
30.18 in
1022 mb
30.15 in
1021 mb
30.15 in
1021 mb
98%99%98%96%92%93%90%88%87%87%87%89%86%86%73%73%73%72%68%67%71%73%74%77%74%62%53%47%43%42%41%43%51%57%57%57%56%56%57%58%59%60%59%60%60%61%62%63%
SSESSESSSSSSSWSSWSSWSSWWWNWNWWNWWNWWWWNWWWWWWSWWSWWNWWNWWNWWNWWWNWWNWWNWNWNWNWNNWNNNNEESEESEESESESESEESEESE
5 mph
8 km/h
5 mph
9 km/h
9 mph
15 km/h
12 mph
19 km/h
14 mph
23 km/h
14 mph
23 km/h
15 mph
24 km/h
16 mph
26 km/h
18 mph
29 km/h
19 mph
30 km/h
19 mph
30 km/h
17 mph
27 km/h
13 mph
20 km/h
8 mph
13 km/h
9 mph
15 km/h
10 mph
15 km/h
9 mph
14 km/h
11 mph
18 km/h
12 mph
19 km/h
10 mph
17 km/h
7 mph
11 km/h
6 mph
9 km/h
5 mph
8 km/h
4 mph
7 km/h
5 mph
8 km/h
8 mph
12 km/h
10 mph
16 km/h
10 mph
16 km/h
9 mph
14 km/h
8 mph
13 km/h
7 mph
11 km/h
6 mph
9 km/h
5 mph
8 km/h
5 mph
8 km/h
4 mph
7 km/h
3 mph
4 km/h
2 mph
3 km/h
0 mph
0 km/h
1 mph
1 km/h
1 mph
1 km/h
1 mph
2 km/h
1 mph
2 km/h
1 mph
2 km/h
2 mph
3 km/h
2 mph
3 km/h
1 mph
2 km/h
1 mph
2 km/h
2 mph
3 km/h
0%0%68%0%0%0%52%0%93%0%92%0%91%88%87%76%0%0%0%0%0%0%0%0%0%0%0%0%0%0%0%0%0%0%0%0%0%0%0%0%0%0%0%0%0%0%0%0%
0 mi
0 km
0 mi
0 km
6 mi
10 km
6 mi
10 km
6 mi
10 km
6 mi
10 km
1 mi
2 km
6 mi
10 km
6 mi
9 km
6 mi
10 km
1 mi
2 km
6 mi
10 km
6 mi
9 km
6 mi
9 km
6 mi
9 km
6 mi
9 km
3 mi
5 km
3 mi
5 km
6 mi
10 km
6 mi
10 km
6 mi
10 km
6 mi
10 km
6 mi
10 km
6 mi
10 km
6 mi
10 km
6 mi
10 km
6 mi
10 km
6 mi
10 km
6 mi
10 km
6 mi
10 km
6 mi
10 km
6 mi
10 km
6 mi
10 km
6 mi
10 km
6 mi
10 km
6 mi
10 km
6 mi
10 km
6 mi
10 km
6 mi
10 km
6 mi
10 km
6 mi
10 km
6 mi
10 km
6 mi
10 km
6 mi
10 km
6 mi
10 km
6 mi
10 km
6 mi
10 km
6 mi
10 km

Day/Time
Weather
Condition
Temperature
Dew Point
Pressure
Humidity
Wind Direction
Wind Speed
Prob Precip %
Visibility
Prob Precip % = Probability of Precipitation.